Location: Dalton
(34.7700°N, 84.9700°W)
Time: 04:59:57
(UTC-05:00)

Vanguard 1 - All Passes

Search period start: 19 February 2018 00:00
Search period end: 01 March 2018 00:00
Orbit: 650 x 3833 km, 34.2° (Epoch: 18 February)

Date Brightness Start Highest point End Pass type
(mag) Time Alt. Az. Time Alt. Az. Time Alt. Az.
19 Feb - 11:17:16 10° SSE 11:24:53 14° SE 11:31:13 10° ESE daylight
19 Feb - 13:34:08 10° SSW 13:48:48 37° SSE 13:57:28 10° E daylight
19 Feb - 15:58:44 10° WSW 16:11:01 69° SSE 16:17:36 10° E daylight
19 Feb - 18:24:05 10° W 18:31:57 86° S 18:36:51 10° E daylight
19 Feb - 20:47:05 10° W 20:51:46 36° SSW 20:55:48 10° SE visible
20 Feb - 11:34:12 10° S 11:46:23 20° SSE 11:55:25 10° ESE daylight
20 Feb - 13:54:37 10° SW 14:10:05 46° SSE 14:18:45 10° E daylight
20 Feb - 16:20:13 10° WSW 16:32:08 79° S 16:38:30 10° E daylight
20 Feb - 18:45:29 10° W 18:52:57 79° S 18:57:44 10° ESE visible
20 Feb - 21:08:33 10° W 21:12:30 24° SSW 21:16:05 10° SSE visible
21 Feb - 11:52:52 10° SSW 12:07:50 27° SSE 12:18:01 10° E daylight
21 Feb - 14:15:30 10° SW 14:31:19 56° SSE 14:39:52 10° E daylight
21 Feb - 16:41:50 10° W 16:53:15 85° S 16:59:23 10° E daylight
21 Feb - 19:06:52 10° W 19:13:54 67° SSW 19:18:33 10° ESE visible
21 Feb - 21:30:28 10° WSW 21:33:12 15° SW 21:35:48 10° S visible
22 Feb - 09:59:58 10° SSE 10:04:35 11° SE 10:08:51 10° SE daylight
22 Feb - 12:12:24 10° SSW 12:29:13 35° SSE 12:39:54 10° E daylight
22 Feb - 14:36:43 10° WSW 14:52:32 66° SSE 15:00:52 10° E daylight
22 Feb - 17:03:29 10° W 17:14:21 88° S 17:20:17 10° E daylight
22 Feb - 19:28:14 10° W 19:34:45 51° SSW 19:39:14 10° SE visible
23 Feb - 10:14:18 10° S 10:26:06 17° SE 10:35:42 10° ESE daylight
23 Feb - 12:32:33 10° SW 12:50:35 43° SSE 13:01:24 10° E daylight
23 Feb - 14:58:11 10° WSW 15:13:45 75° SSE 15:21:49 10° E daylight
23 Feb - 17:25:07 10° W 17:35:27 86° S 17:41:10 10° E daylight
23 Feb - 19:49:40 10° W 19:55:30 37° SSW 19:59:45 10° SE visible
24 Feb - 10:32:05 10° S 10:47:32 24° SE 10:59:10 10° E daylight
24 Feb - 12:53:08 10° SW 13:11:55 52° SSE 13:22:40 10° E daylight
24 Feb - 15:19:50 10° WSW 15:34:57 82° S 15:42:44 10° E daylight
24 Feb - 17:46:43 10° W 17:56:30 79° S 18:02:02 10° ESE daylight
24 Feb - 20:11:16 10° W 20:16:09 25° SW 20:19:58 10° SSE visible
25 Feb - 10:51:03 10° SSW 11:08:55 32° SE 11:21:33 10° E daylight
25 Feb - 13:14:07 10° SW 13:33:13 62° SSE 13:43:47 10° E daylight
25 Feb - 15:41:36 10° W 15:56:10 87° S 16:03:40 10° E daylight
25 Feb - 18:08:15 10° W 18:17:28 68° SSW 18:22:49 10° ESE daylight
25 Feb - 20:33:19 10° WSW 20:36:42 16° SW 20:39:36 10° S visible
26 Feb - 08:56:22 10° SSE 09:05:24 14° SE 09:13:34 10° ESE daylight
26 Feb - 11:10:44 10° SSW 11:30:16 40° SSE 11:43:23 10° E daylight
26 Feb - 13:35:26 10° WSW 13:54:32 70° SSE 14:04:49 10° E daylight
26 Feb - 16:03:25 10° W 16:17:22 88° S 16:24:34 10° E daylight
26 Feb - 18:29:47 10° W 18:38:19 54° SSW 18:43:28 10° SE daylight
27 Feb - 09:12:28 10° S 09:26:44 20° SE 09:38:51 10° E daylight
27 Feb - 11:30:57 10° SW 11:51:37 48° SSE 12:04:52 10° E daylight
27 Feb - 13:57:00 10° WSW 14:15:50 78° SSE 14:25:48 10° E daylight
27 Feb - 16:25:13 10° W 16:38:32 86° S 16:45:28 10° E daylight
27 Feb - 18:51:21 10° W 18:59:04 40° SSW 19:03:57 10° SE visible
28 Feb - 09:30:37 10° S 09:48:01 27° SE 10:02:04 10° E daylight
28 Feb - 11:51:36 10° SW 12:12:59 57° SSE 12:26:09 10° E daylight
28 Feb - 14:18:45 10° WSW 14:37:10 84° S 14:46:46 10° E daylight
28 Feb - 16:46:59 10° W 16:59:39 80° SSW 17:06:19 10° ESE daylight
28 Feb - 19:13:05 10° W 19:19:39 28° SW 19:24:08 10° SSE visible
